Time,TemperatureF,DewpointF,PressureIn,WindDirection,WindDirectionDegrees,WindSpeedMPH,WindSpeedGustMPH,Humidity,HourlyPrecipIn,Conditions,Clouds,dailyrainin,SoftwareType,DateUTC
2013-03-19 07:04:00,28.2,27.2,30.16,East,81,3.0,3.0,96,0.00,,,0.00,Wunderground v.1.15,2013-03-19 11:04:00,
2013-03-19 07:06:00,28.2,27.2,30.16,East,83,3.0,5.0,96,0.00,,,0.00,Wunderground v.1.15,2013-03-19 11:06:00,
2013-03-19 07:07:00,28.2,27.2,30.16,East,87,3.0,11.0,96,0.00,,,0.00,Wunderground v.1.15,2013-03-19 11:07:00,
2013-03-19 07:12:00,28.3,27.3,30.16,ENE,68,3.0,11.0,96,0.00,,,0.00,Wunderground v.1.15,2013-03-19 11:12:00,
2013-03-19 07:15:00,28.3,27.3,30.16,East,92,3.0,11.0,96,0.00,,,0.00,Wunderground v.1.15,2013-03-19 11:15:00,
2013-03-19 07:20:00,28.3,27.3,30.16,East,90,3.0,11.0,96,0.00,,,0.00,Wunderground v.1.15,2013-03-19 11:20:00,
2013-03-19 07:26:00,28.3,27.3,30.15,ENE,69,2.0,11.0,96,0.00,,,0.00,Wunderground v.1.15,2013-03-19 11:26:00,
2013-03-19 07:31:00,28.3,27.3,30.16,ESE,112,3.0,11.0,96,0.00,,,0.00,Wunderground v.1.15,2013-03-19 11:31:00,
2013-03-19 07:36:00,28.3,27.3,30.15,ESE,107,4.0,11.0,96,0.00,,,0.00,Wunderground v.1.15,2013-03-19 11:36:00,
2013-03-19 07:42:00,28.4,27.4,30.16,East,95,4.0,11.0,96,0.00,,,0.00,Wunderground v.1.15,2013-03-19 11:42:00,
2013-03-19 07:47:00,28.4,27.4,30.16,ENE,71,4.0,11.0,96,0.00,,,0.00,Wunderground v.1.15,2013-03-19 11:47:00,
2013-03-19 07:52:00,28.4,27.4,30.16,East,82,4.0,11.0,96,0.00,,,0.00,Wunderground v.1.15,2013-03-19 11:52:00,
2013-03-19 07:58:00,28.4,27.4,30.15,East,95,5.0,11.0,96,0.00,,,0.00,Wunderground v.1.15,2013-03-19 11:58:00,
2013-03-19 08:03:00,28.4,27.4,30.15,East,91,5.0,11.0,96,0.00,,,0.00,Wunderground v.1.15,2013-03-19 12:03:00,
2013-03-19 08:08:00,28.4,27.4,30.14,East,88,4.0,11.0,96,0.00,,,0.00,Wunderground v.1.15,2013-03-19 12:08:00,
2013-03-19 08:14:00,28.4,27.4,30.14,SE,128,5.0,11.0,96,0.00,,,0.00,Wunderground v.1.15,2013-03-19 12:14:00,
2013-03-19 08:20:00,28.5,27.5,30.14,ESE,123,6.0,11.0,96,0.00,,,0.00,Wunderground v.1.15,2013-03-19 12:20:00,
2013-03-19 08:25:00,28.5,27.5,30.14,East,89,6.0,11.0,96,0.00,,,0.00,Wunderground v.1.15,2013-03-19 12:25:00,
2013-03-19 08:31:00,28.6,27.6,30.14,ENE,76,5.0,11.0,96,0.00,,,0.00,Wunderground v.1.15,2013-03-19 12:31:00,
2013-03-19 08:36:00,28.6,27.6,30.14,SE,128,5.0,11.0,96,0.00,,,0.00,Wunderground v.1.15,2013-03-19 12:36:00,
2013-03-19 08:41:00,28.6,27.4,30.14,ESE,108,6.0,11.0,95,0.00,,,0.00,Wunderground v.1.15,2013-03-19 12:41:00,
2013-03-19 08:46:00,28.6,27.6,30.14,NE,56,5.0,11.0,96,0.00,,,0.00,Wunderground v.1.15,2013-03-19 12:46:00,
2013-03-19 08:52:00,28.7,27.7,30.13,East,92,3.0,11.0,96,0.00,,,0.00,Wunderground v.1.15,2013-03-19 12:52:00,
2013-03-19 08:57:00,28.7,27.7,30.13,East,95,3.0,11.0,96,0.00,,,0.00,Wunderground v.1.15,2013-03-19 12:57:00,
2013-03-19 09:02:00,28.8,27.8,30.13,ENE,70,5.0,11.0,96,0.00,,,0.00,Wunderground v.1.15,2013-03-19 13:02:00,
2013-03-19 09:08:00,28.9,27.9,30.13,ENE,61,4.0,11.0,96,0.00,,,0.00,Wunderground v.1.15,2013-03-19 13:08:00,
2013-03-19 09:13:00,28.9,27.9,30.12,ENE,76,4.0,11.0,96,0.00,,,0.00,Wunderground v.1.15,2013-03-19 13:13:00,
2013-03-19 09:19:00,28.9,27.9,30.13,NE,51,5.0,11.0,96,0.00,,,0.00,Wunderground v.1.15,2013-03-19 13:19:00,
2013-03-19 09:24:00,28.9,28.2,30.13,NE,50,5.0,11.0,97,0.00,,,0.00,Wunderground v.1.15,2013-03-19 13:24:00,
2013-03-19 09:30:00,28.9,28.2,30.12,ENE,71,5.0,5.0,97,0.00,,,0.00,Wunderground v.1.15,2013-03-19 13:30:00,
2013-03-19 09:35:00,29.0,28.3,30.12,NE,51,6.0,11.0,97,0.00,,,0.00,Wunderground v.1.15,2013-03-19 13:35:00,
2013-03-19 09:40:00,28.9,27.9,30.11,ESE,110,6.0,6.0,96,0.00,,,0.00,Wunderground v.1.15,2013-03-19 13:40:00,
2013-03-19 09:46:00,29.1,28.1,30.11,ESE,115,5.0,11.0,96,0.00,,,0.00,Wunderground v.1.15,2013-03-19 13:46:00,
2013-03-19 09:51:00,29.0,28.0,30.11,ESE,107,6.0,9.0,96,0.00,,,0.00,Wunderground v.1.15,2013-03-19 13:51:00,
2013-03-19 09:56:00,29.0,28.0,30.11,East,88,8.0,15.0,96,0.00,,,0.00,Wunderground v.1.15,2013-03-19 13:56:00,
2013-03-19 10:01:00,29.0,28.0,30.10,East,86,8.0,13.0,96,0.00,,,0.00,Wunderground v.1.15,2013-03-19 14:01:00,
2013-03-19 10:06:00,29.2,28.2,30.10,SSE,150,6.0,13.0,96,0.00,,,0.00,Wunderground v.1.15,2013-03-19 14:06:00,
2013-03-19 10:12:00,29.3,28.3,30.10,SE,135,7.0,11.0,96,0.00,,,0.00,Wunderground v.1.15,2013-03-19 14:12:00,
2013-03-19 10:17:00,29.3,28.3,30.10,ESE,123,8.0,11.0,96,0.00,,,0.00,Wunderground v.1.15,2013-03-19 14:17:00,
2013-03-19 10:22:00,29.4,28.4,30.09,ENE,74,8.0,11.0,96,0.00,,,0.00,Wunderground v.1.15,2013-03-19 14:22:00,
2013-03-19 10:27:00,29.4,28.4,30.09,ENE,69,9.0,11.0,96,0.00,,,0.00,Wunderground v.1.15,2013-03-19 14:27:00,
2013-03-19 10:32:00,29.4,28.4,30.08,East,90,9.0,11.0,96,0.00,,,0.00,Wunderground v.1.15,2013-03-19 14:32:00,
2013-03-19 10:38:00,29.4,28.4,30.08,ESE,110,7.0,11.0,96,0.00,,,0.00,Wunderground v.1.15,2013-03-19 14:38:00,
2013-03-19 10:43:00,29.4,28.4,30.08,ESE,119,7.0,11.0,96,0.00,,,0.00,Wunderground v.1.15,2013-03-19 14:43:00,
2013-03-19 10:49:00,29.5,28.5,30.08,East,89,9.0,13.0,96,0.00,,,0.00,Wunderground v.1.15,2013-03-19 14:49:00,
2013-03-19 10:54:00,29.5,28.5,30.08,ESE,119,9.0,11.0,96,0.00,,,0.00,Wunderground v.1.15,2013-03-19 14:54:00,
2013-03-19 10:59:00,29.6,28.6,30.07,NE,55,8.0,14.0,96,0.00,,,0.00,Wunderground v.1.15,2013-03-19 14:59:00,
2013-03-19 11:05:00,29.7,28.7,30.07,East,94,6.0,11.0,96,0.00,,,0.00,Wunderground v.1.15,2013-03-19 15:05:00,
2013-03-19 11:10:00,29.8,28.8,30.06,NE,36,5.0,5.0,96,0.00,,,0.00,Wunderground v.1.15,2013-03-19 15:10:00,
2013-03-19 11:15:00,30.0,29.0,30.06,East,83,5.0,11.0,96,0.00,,,0.00,Wunderground v.1.15,2013-03-19 15:15:00,
2013-03-19 11:21:00,30.1,29.1,30.06,NE,54,4.0,11.0,96,0.00,,,0.00,Wunderground v.1.15,2013-03-19 15:21:00,
2013-03-19 11:26:00,30.2,29.5,30.06,ESE,115,6.0,11.0,97,0.00,,,0.00,Wunderground v.1.15,2013-03-19 15:26:00,
2013-03-19 11:31:00,30.4,29.7,30.05,East,86,6.0,9.0,97,0.00,,,0.00,Wunderground v.1.15,2013-03-19 15:31:00,
2013-03-19 11:37:00,30.7,30.0,30.05,ENE,69,4.0,11.0,97,0.00,,,0.00,Wunderground v.1.15,2013-03-19 15:37:00,
2013-03-19 11:42:00,30.8,30.0,30.05,ENE,64,3.0,11.0,97,0.00,,,0.00,Wunderground v.1.15,2013-03-19 15:42:00,
2013-03-19 11:48:00,30.6,29.9,30.05,SE,134,4.0,11.0,97,0.00,,,0.00,Wunderground v.1.15,2013-03-19 15:48:00,
2013-03-19 11:53:00,30.6,29.9,30.05,East,91,5.0,11.0,97,0.00,,,0.00,Wunderground v.1.15,2013-03-19 15:53:00,
2013-03-19 11:58:00,30.4,29.7,30.05,ESE,103,5.0,14.0,97,0.00,,,0.00,Wunderground v.1.15,2013-03-19 15:58:00,
2013-03-19 12:04:00,30.4,29.7,30.04,East,98,7.0,11.0,97,0.00,,,0.00,Wunderground v.1.15,2013-03-19 16:04:00,
2013-03-19 12:10:00,30.5,29.8,30.03,ESE,102,6.0,11.0,97,0.00,,,0.00,Wunderground v.1.15,2013-03-19 16:10:00,
2013-03-19 12:15:00,30.4,29.7,30.03,East,83,7.0,11.0,97,0.00,,,0.00,Wunderground v.1.15,2013-03-19 16:15:00,
2013-03-19 12:20:00,30.3,29.6,30.03,East,80,9.0,9.0,97,0.00,,,0.00,Wunderground v.1.15,2013-03-19 16:20:00,
2013-03-19 12:26:00,30.4,29.7,30.02,NE,55,7.0,11.0,97,0.00,,,0.00,Wunderground v.1.15,2013-03-19 16:26:00,
2013-03-19 12:31:00,30.3,29.6,30.02,ESE,105,7.0,11.0,97,0.00,,,0.01,Wunderground v.1.15,2013-03-19 16:31:00,
2013-03-19 12:36:00,30.4,29.7,30.02,ENE,78,7.0,11.0,97,0.00,,,0.01,Wunderground v.1.15,2013-03-19 16:36:00,
2013-03-19 12:42:00,30.2,29.5,30.01,SE,126,7.0,11.0,97,0.00,,,0.01,Wunderground v.1.15,2013-03-19 16:42:00,
2013-03-19 12:47:00,30.2,29.5,30.01,East,92,7.0,13.0,97,0.00,,,0.01,Wunderground v.1.15,2013-03-19 16:47:00,
2013-03-19 12:53:00,30.1,29.4,30.01,NE,49,8.0,11.0,97,0.00,,,0.01,Wunderground v.1.15,2013-03-19 16:53:00,
2013-03-19 12:59:00,30.1,29.4,30.00,SE,132,8.0,11.0,97,0.00,,,0.01,Wunderground v.1.15,2013-03-19 16:59:00,
2013-03-19 13:04:00,30.0,29.3,30.00,East,96,8.0,16.0,97,0.00,,,0.01,Wunderground v.1.15,2013-03-19 17:04:00,
2013-03-19 13:09:00,30.0,29.3,29.99,East,87,8.0,16.0,97,0.00,,,0.01,Wunderground v.1.15,2013-03-19 17:09:00,
2013-03-19 13:14:00,30.0,29.3,29.99,East,88,9.0,11.0,97,0.00,,,0.01,Wunderground v.1.15,2013-03-19 17:14:00,
2013-03-19 13:20:00,30.0,29.3,29.98,East,80,9.0,9.0,97,0.00,,,0.02,Wunderground v.1.15,2013-03-19 17:20:00,
2013-03-19 13:25:00,30.1,29.4,29.97,East,86,9.0,11.0,97,0.00,,,0.02,Wunderground v.1.15,2013-03-19 17:25:00,
2013-03-19 13:30:00,30.1,29.4,29.97,East,86,8.0,11.0,97,0.00,,,0.02,Wunderground v.1.15,2013-03-19 17:30:00,
2013-03-19 13:36:00,30.0,29.3,29.96,NE,55,9.0,15.0,97,0.00,,,0.02,Wunderground v.1.15,2013-03-19 17:36:00,
2013-03-19 13:42:00,30.1,29.4,29.95,East,92,8.0,11.0,97,0.00,,,0.02,Wunderground v.1.15,2013-03-19 17:42:00,
2013-03-19 13:47:00,30.1,29.4,29.95,ESE,105,8.0,14.0,97,0.00,,,0.02,Wunderground v.1.15,2013-03-19 17:47:00,
2013-03-19 13:53:00,30.0,29.3,29.95,ESE,111,10.0,11.0,97,0.00,,,0.02,Wunderground v.1.15,2013-03-19 17:53:00,
2013-03-19 13:58:00,30.0,29.5,29.94,ENE,76,8.0,11.0,98,0.00,,,0.03,Wunderground v.1.15,2013-03-19 17:58:00,
2013-03-19 14:03:00,30.2,29.7,29.94,NE,35,6.0,11.0,98,0.00,,,0.03,Wunderground v.1.15,2013-03-19 18:03:00,
2013-03-19 14:09:00,30.1,29.4,29.94,East,82,7.0,15.0,97,0.00,,,0.03,Wunderground v.1.15,2013-03-19 18:09:00,
2013-03-19 14:14:00,30.1,29.4,29.93,NE,51,8.0,11.0,97,0.00,,,0.03,Wunderground v.1.15,2013-03-19 18:14:00,
2013-03-19 14:19:00,30.0,29.3,29.93,ENE,74,8.0,12.0,97,0.00,,,0.03,Wunderground v.1.15,2013-03-19 18:19:00,
2013-03-19 14:24:00,29.9,29.4,29.93,ENE,63,8.0,12.0,98,0.00,,,0.03,Wunderground v.1.15,2013-03-19 18:24:00,
2013-03-19 14:30:00,29.9,29.4,29.92,East,88,7.0,7.0,98,0.00,,,0.03,Wunderground v.1.15,2013-03-19 18:30:00,
2013-03-19 14:36:00,29.9,29.4,29.92,NE,50,5.0,11.0,98,0.00,,,0.03,Wunderground v.1.15,2013-03-19 18:36:00,
2013-03-19 14:41:00,29.7,29.2,29.92,East,80,6.0,11.0,98,0.00,,,0.03,Wunderground v.1.15,2013-03-19 18:41:00,
2013-03-19 14:47:00,29.7,29.2,29.91,East,92,8.0,11.0,98,0.00,,,0.04,Wunderground v.1.15,2013-03-19 18:47:00,
2013-03-19 14:52:00,29.8,29.3,29.90,East,79,9.0,16.0,98,0.00,,,0.04,Wunderground v.1.15,2013-03-19 18:52:00,
2013-03-19 14:58:00,29.9,29.4,29.89,East,95,8.0,16.0,98,0.00,,,0.04,Wunderground v.1.15,2013-03-19 18:58:00,
2013-03-19 15:03:00,29.8,29.3,29.89,ESE,116,7.0,11.0,98,0.00,,,0.04,Wunderground v.1.15,2013-03-19 19:03:00,
2013-03-19 15:08:00,29.9,29.4,29.87,East,101,7.0,15.0,98,0.00,,,0.04,Wunderground v.1.15,2013-03-19 19:08:00,
2013-03-19 15:13:00,29.8,29.1,29.87,ENE,77,9.0,20.0,97,0.00,,,0.04,Wunderground v.1.15,2013-03-19 19:13:00,
2013-03-19 15:19:00,29.7,29.0,29.87,NNE,30,10.0,20.0,97,0.00,,,0.04,Wunderground v.1.15,2013-03-19 19:19:00,
2013-03-19 15:24:00,29.4,28.7,29.87,ENE,61,9.0,15.0,97,0.00,,,0.05,Wunderground v.1.15,2013-03-19 19:24:00,
2013-03-19 15:29:00,29.3,28.8,29.87,NE,49,10.0,15.0,98,0.00,,,0.05,Wunderground v.1.15,2013-03-19 19:29:00,
2013-03-19 15:35:00,29.2,28.7,29.88,NNE,26,8.0,11.0,98,0.00,,,0.05,Wunderground v.1.15,2013-03-19 19:35:00,
2013-03-19 15:42:00,29.1,28.6,29.88,NE,34,7.0,11.0,98,0.00,,,0.05,Wunderground v.1.15,2013-03-19 19:42:00,
2013-03-19 15:49:00,29.0,28.5,29.88,NE,39,7.0,12.0,98,0.00,,,0.05,Wunderground v.1.15,2013-03-19 19:49:00,
2013-03-19 15:55:00,28.8,28.3,29.88,NNE,32,6.0,11.0,98,0.00,,,0.05,Wunderground v.1.15,2013-03-19 19:55:00,
2013-03-19 16:00:00,28.9,28.4,29.88,NE,36,7.0,7.0,98,0.00,,,0.05,Wunderground v.1.15,2013-03-19 20:00:00,
2013-03-19 16:05:00,28.8,28.3,29.88,NE,43,6.0,11.0,98,0.00,,,0.05,Wunderground v.1.15,2013-03-19 20:05:00,
2013-03-19 16:10:00,28.6,28.1,29.88,NNE,16,7.0,7.0,98,0.00,,,0.05,Wunderground v.1.15,2013-03-19 20:10:00,
2013-03-19 16:15:00,28.4,27.9,29.89,NE,38,6.0,11.0,98,0.00,,,0.05,Wunderground v.1.15,2013-03-19 20:15:00,
2013-03-19 16:21:00,28.2,27.7,29.89,NNE,16,8.0,11.0,98,0.00,,,0.05,Wunderground v.1.15,2013-03-19 20:21:00,
2013-03-19 16:27:00,28.0,27.5,29.88,NNW,338,8.0,11.0,98,0.00,,,0.05,Wunderground v.1.15,2013-03-19 20:27:00,
2013-03-19 16:32:00,27.9,27.4,29.88,NE,56,7.0,11.0,98,0.00,,,0.05,Wunderground v.1.15,2013-03-19 20:32:00,
2013-03-19 16:38:00,27.8,27.3,29.89,NE,48,6.0,12.0,98,0.00,,,0.05,Wunderground v.1.15,2013-03-19 20:38:00,
2013-03-19 16:44:00,27.8,27.3,29.89,North,360,5.0,11.0,98,0.00,,,0.05,Wunderground v.1.15,2013-03-19 20:44:00,
2013-03-19 16:49:00,27.8,27.3,29.90,North,5,4.0,11.0,98,0.00,,,0.05,Wunderground v.1.15,2013-03-19 20:49:00,
2013-03-19 16:55:00,27.7,27.2,29.89,North,5,5.0,11.0,98,0.00,,,0.05,Wunderground v.1.15,2013-03-19 20:55:00,
2013-03-19 17:00:00,27.5,27.0,29.89,NNW,338,6.0,6.0,98,0.00,,,0.05,Wunderground v.1.15,2013-03-19 21:00:00,
2013-03-19 17:06:00,27.4,27.2,29.88,North,355,6.0,11.0,99,0.00,,,0.05,Wunderground v.1.15,2013-03-19 21:06:00,
2013-03-19 17:11:00,27.4,27.2,29.88,North,360,7.0,11.0,99,0.00,,,0.05,Wunderground v.1.15,2013-03-19 21:11:00,
2013-03-19 17:16:00,27.3,27.1,29.87,NNE,18,6.0,11.0,99,0.00,,,0.05,Wunderground v.1.15,2013-03-19 21:16:00,
2013-03-19 17:22:00,27.3,27.1,29.86,NNE,32,6.0,11.0,99,0.00,,,0.05,Wunderground v.1.15,2013-03-19 21:22:00,
2013-03-19 17:27:00,27.1,26.9,29.86,NNE,30,7.0,11.0,99,0.00,,,0.05,Wunderground v.1.15,2013-03-19 21:27:00,
2013-03-19 17:32:00,27.0,26.8,29.86,North,5,8.0,11.0,99,0.00,,,0.05,Wunderground v.1.15,2013-03-19 21:32:00,
2013-03-19 17:38:00,27.0,26.8,29.85,NNW,346,7.0,11.0,99,0.00,,,0.05,Wunderground v.1.15,2013-03-19 21:38:00,
2013-03-19 17:43:00,27.0,26.8,29.85,North,360,6.0,11.0,99,0.00,,,0.05,Wunderground v.1.15,2013-03-19 21:43:00,
2013-03-19 17:48:00,26.9,26.7,29.85,NNE,14,7.0,13.0,99,0.00,,,0.05,Wunderground v.1.15,2013-03-19 21:48:00,
2013-03-19 17:53:00,26.6,26.4,29.85,NNE,14,9.0,12.0,99,0.00,,,0.05,Wunderground v.1.15,2013-03-19 21:53:00,
2013-03-19 17:59:00,26.4,26.2,29.84,NNE,33,9.0,13.0,99,0.00,,,0.05,Wunderground v.1.15,2013-03-19 21:59:00,
2013-03-19 18:04:00,26.3,26.1,29.84,NNE,31,8.0,11.0,99,0.00,,,0.05,Wunderground v.1.15,2013-03-19 22:04:00,
2013-03-19 18:09:00,26.2,26.0,29.84,NNE,29,8.0,11.0,99,0.00,,,0.05,Wunderground v.1.15,2013-03-19 22:09:00,
2013-03-19 18:14:00,26.1,25.9,29.83,North,11,7.0,11.0,99,0.00,,,0.05,Wunderground v.1.15,2013-03-19 22:14:00,
2013-03-19 18:20:00,25.9,25.7,29.82,North,11,7.0,11.0,99,0.00,,,0.05,Wunderground v.1.15,2013-03-19 22:20:00,
2013-03-19 18:25:00,25.7,25.2,29.82,North,5,7.0,14.0,98,0.00,,,0.05,Wunderground v.1.15,2013-03-19 22:25:00,
2013-03-19 18:31:00,25.3,24.8,29.81,NNE,22,9.0,11.0,98,0.00,,,0.05,Wunderground v.1.15,2013-03-19 22:31:00,
2013-03-19 18:37:00,25.3,24.8,29.81,East,81,8.0,11.0,98,0.00,,,0.05,Wunderground v.1.15,2013-03-19 22:37:00,
2013-03-19 18:42:00,25.1,24.6,29.80,NE,44,8.0,11.0,98,0.00,,,0.05,Wunderground v.1.15,2013-03-19 22:42:00,
2013-03-19 18:48:00,25.0,24.5,29.79,North,9,8.0,14.0,98,0.00,,,0.05,Wunderground v.1.15,2013-03-19 22:48:00,
2013-03-19 18:53:00,24.9,24.4,29.78,NNE,20,8.0,13.0,98,0.00,,,0.05,Wunderground v.1.15,2013-03-19 22:53:00,
2013-03-19 18:59:00,24.8,24.3,29.78,NNE,25,8.0,14.0,98,0.00,,,0.05,Wunderground v.1.15,2013-03-19 22:59:00,
2013-03-19 19:05:00,24.7,24.2,29.78,NE,47,8.0,11.0,98,0.00,,,0.05,Wunderground v.1.15,2013-03-19 23:05:00,
2013-03-19 19:11:00,24.6,24.1,29.77,NNE,32,8.0,12.0,98,0.00,,,0.05,Wunderground v.1.15,2013-03-19 23:11:00,
2013-03-19 19:16:00,24.5,24.0,29.76,NNW,331,8.0,12.0,98,0.00,,,0.05,Wunderground v.1.15,2013-03-19 23:16:00,
2013-03-19 19:22:00,24.4,23.9,29.76,NNE,23,8.0,11.0,98,0.00,,,0.05,Wunderground v.1.15,2013-03-19 23:22:00,
2013-03-19 19:27:00,24.3,23.8,29.76,NNE,13,7.0,11.0,98,0.00,,,0.05,Wunderground v.1.15,2013-03-19 23:27:00,
2013-03-19 19:32:00,24.3,23.8,29.76,NNE,14,6.0,11.0,98,0.00,,,0.05,Wunderground v.1.15,2013-03-19 23:32:00,
2013-03-19 19:38:00,24.2,23.7,29.76,NNE,13,7.0,11.0,98,0.00,,,0.05,Wunderground v.1.15,2013-03-19 23:38:00,
2013-03-19 19:44:00,24.2,23.7,29.75,North,11,9.0,11.0,98,0.00,,,0.05,Wunderground v.1.15,2013-03-19 23:44:00,
2013-03-19 19:49:00,24.2,23.7,29.75,North,349,8.0,11.0,98,0.00,,,0.05,Wunderground v.1.15,2013-03-19 23:49:00,
2013-03-19 19:55:00,24.2,23.7,29.75,NNE,30,8.0,12.0,98,0.00,,,0.05,Wunderground v.1.15,2013-03-19 23:55:00,
2013-03-19 20:00:00,24.2,23.7,29.75,NNE,21,7.0,11.0,98,0.00,,,0.05,Wunderground v.1.15,2013-03-20 00:00:00,
2013-03-19 20:05:00,24.2,23.7,29.75,NNE,15,7.0,12.0,98,0.00,,,0.05,Wunderground v.1.15,2013-03-20 00:05:00,
2013-03-19 20:10:00,24.2,23.7,29.75,NNE,19,7.0,11.0,98,0.00,,,0.05,Wunderground v.1.15,2013-03-20 00:10:00,
2013-03-19 20:16:00,24.2,23.7,29.75,North,5,8.0,12.0,98,0.00,,,0.05,Wunderground v.1.15,2013-03-20 00:16:00,
2013-03-19 20:22:00,24.3,23.8,29.75,NNE,26,8.0,11.0,98,0.00,,,0.05,Wunderground v.1.15,2013-03-20 00:22:00,
2013-03-19 20:27:00,24.3,23.8,29.75,North,360,7.0,11.0,98,0.00,,,0.05,Wunderground v.1.15,2013-03-20 00:27:00,
2013-03-19 20:33:00,24.3,23.8,29.75,North,355,7.0,12.0,98,0.00,,,0.05,Wunderground v.1.15,2013-03-20 00:33:00,
2013-03-19 20:38:00,24.3,23.8,29.75,NNE,30,8.0,12.0,98,0.00,,,0.05,Wunderground v.1.15,2013-03-20 00:38:00,
2013-03-19 20:44:00,24.3,23.8,29.74,NNE,19,7.0,11.0,98,0.00,,,0.05,Wunderground v.1.15,2013-03-20 00:44:00,
2013-03-19 20:50:00,24.3,23.8,29.74,NE,34,8.0,11.0,98,0.00,,,0.05,Wunderground v.1.15,2013-03-20 00:50:00,
2013-03-19 20:56:00,24.4,23.9,29.75,NE,46,8.0,11.0,98,0.00,,,0.05,Wunderground v.1.15,2013-03-20 00:56:00,
2013-03-19 21:02:00,24.3,23.8,29.74,North,360,7.0,11.0,98,0.00,,,0.05,Wunderground v.1.15,2013-03-20 01:02:00,
2013-03-19 21:07:00,24.3,23.8,29.74,NNE,13,7.0,11.0,98,0.00,,,0.05,Wunderground v.1.15,2013-03-20 01:07:00,
2013-03-19 21:13:00,24.3,23.8,29.73,North,360,8.0,11.0,98,0.00,,,0.05,Wunderground v.1.15,2013-03-20 01:13:00,
2013-03-19 21:18:00,24.4,23.9,29.73,North,5,8.0,11.0,98,0.00,,,0.05,Wunderground v.1.15,2013-03-20 01:18:00,
2013-03-19 21:23:00,24.4,23.9,29.73,NNE,24,9.0,12.0,98,0.00,,,0.05,Wunderground v.1.15,2013-03-20 01:23:00,
2013-03-19 21:28:00,24.3,23.8,29.72,North,5,9.0,12.0,98,0.00,,,0.05,Wunderground v.1.15,2013-03-20 01:28:00,
2013-03-19 21:33:00,24.3,23.8,29.72,North,5,9.0,11.0,98,0.00,,,0.05,Wunderground v.1.15,2013-03-20 01:33:00,
2013-03-19 21:38:00,24.3,23.8,29.72,NNW,342,8.0,11.0,98,0.00,,,0.05,Wunderground v.1.15,2013-03-20 01:38:00,
2013-03-19 21:44:00,24.3,23.8,29.72,North,5,8.0,11.0,98,0.00,,,0.05,Wunderground v.1.15,2013-03-20 01:44:00,
2013-03-19 21:49:00,24.3,23.8,29.72,North,350,8.0,11.0,98,0.00,,,0.05,Wunderground v.1.15,2013-03-20 01:49:00,
2013-03-19 21:54:00,24.2,23.7,29.71,North,5,8.0,11.0,98,0.00,,,0.05,Wunderground v.1.15,2013-03-20 01:54:00,
2013-03-19 22:00:00,24.0,23.5,29.71,North,5,9.0,9.0,98,0.00,,,0.05,Wunderground v.1.15,2013-03-20 02:00:00,
2013-03-19 22:05:00,23.9,23.4,29.71,NNW,344,8.0,13.0,98,0.00,,,0.05,Wunderground v.1.15,2013-03-20 02:05:00,
2013-03-19 22:10:00,23.8,23.3,29.71,North,5,9.0,12.0,98,0.00,,,0.05,Wunderground v.1.15,2013-03-20 02:10:00,
2013-03-19 22:17:00,23.6,23.1,29.71,NNE,12,9.0,13.0,98,0.00,,,0.05,Wunderground v.1.15,2013-03-20 02:17:00,
2013-03-19 22:23:00,23.5,23.0,29.70,NNE,15,9.0,16.0,98,0.00,,,0.05,Wunderground v.1.15,2013-03-20 02:23:00,
2013-03-19 22:28:00,23.4,22.9,29.69,North,355,9.0,16.0,98,0.00,,,0.05,Wunderground v.1.15,2013-03-20 02:28:00,
2013-03-19 22:33:00,23.3,22.8,29.69,North,351,10.0,13.0,98,0.00,,,0.05,Wunderground v.1.15,2013-03-20 02:33:00,
2013-03-19 22:38:00,23.2,22.7,29.69,North,350,10.0,13.0,98,0.00,,,0.05,Wunderground v.1.15,2013-03-20 02:38:00,
2013-03-19 22:44:00,23.1,22.6,29.69,NNW,348,9.0,13.0,98,0.00,,,0.05,Wunderground v.1.15,2013-03-20 02:44:00,
2013-03-19 22:49:00,23.1,22.6,29.68,NNE,15,9.0,14.0,98,0.00,,,0.05,Wunderground v.1.15,2013-03-20 02:49:00,
2013-03-19 22:54:00,23.0,22.5,29.68,North,355,10.0,13.0,98,0.00,,,0.05,Wunderground v.1.15,2013-03-20 02:54:00,
2013-03-19 22:59:00,23.0,22.5,29.69,North,10,11.0,13.0,98,0.00,,,0.05,Wunderground v.1.15,2013-03-20 02:59:00,
2013-03-19 23:04:00,23.0,22.5,29.68,North,360,9.0,11.0,98,0.00,,,0.05,Wunderground v.1.15,2013-03-20 03:04:00,
2013-03-19 23:09:00,23.0,22.5,29.68,North,355,8.0,11.0,98,0.00,,,0.05,Wunderground v.1.15,2013-03-20 03:09:00,